Probability
0 0 0 0 0 0 0 0 0 0 0 0 0 0 0 0 0 0 0 0 0 0 0 0 0 0 0 0 0 0 0 0 0 1 1 1 0 0
0 0 0 0 0 0 0 0 0 0 0 0 0 0 0 0 0 0 0 0 0 0 0 0 0 0 0 0 0 0 0 0 0 0 0 0 0 0
0 0 0 0 0 0 0 0 0 0 0 0 0 0 0 0 0 0 0 0 0 0 0 0 0 0 0 0 0 0 0 0 0 0 0 0 0 0
0 0 0 0 0 0 0 0 0 0 0 0 0 0 0 0 0 0 0 0 0 0 0 0 0 0 0 0 0 0 0 0 0 0 0 0 0 0
0 0 0 0 0 0 0 0 0 0 0 0 0 0 0 0 0 0 0 0 0 0 0 0 0 0 0 0 0 0 0 0 0 0 0 0 0 0
0 0 0 0 0 0 0 0 0 0 0 0 0 0 0 0 0 0 0 0 0 0 0 0 0 0 0 0 0 0 0 0 0 0 0 0 0 0
0 0 0 0 0 0 0 0 0 0 0 0 0 0 0 0 0 0 0 0 0 0 0 0 0 0 0 0 0 0 0 0 0 0 0 0 0 0
0 0 0 0 0 0 0 0 0 0 0 0 0 0 0 0 0 0 0 0 0 0 0 0 0 0 0 0 0 0 0 0 0 0 0 0 0 0
0 0 0 0 0 0 0 0 0 0 0 0 0 0 0 0 0 0 0 0 0 0 0 0 0 0 0 0 0 0 0 0 0 0 0 0 0 0
0 0 0 0 0 0 0 0 0 0 0 0 0 0 0 0 0 0 0 0 0 0 0 0 0 0 0 0 0 0 0 0 0 0 0 0 0 0
0 0 0 0 0 0 0 0 0 0 0 0 0 0 0 0 0 0 0 0 0 0 0 0 0 0 0 0 0 0 0 0 0 0 0 0 0 0
0 0 0 0 0 0 0 0 0 0 0 0 0 0 0 0 0 0 0 0 0 0 0 0 0 0 0 0 0 0 0 0 0 0 0 0 0 0
0 0 0 0 0 0 0 0 0 0 0 0 0 0 0 0 0 0 0 0 0 0 0 0 0 0 0 0 0 0 0 0 0 0 0 0 0 0
0 0 0 0 0 0 0 0 0 0 0 0 0 0 0 0 0 0 0 0 0 0 0 0 0 0 0 0 0 0 0 0 0 0 0 0 0 0
0 0 0 0 0 0 0 0 0 0 0 0 0 0 0 0 0 0 0 0 0 0 0 0 0 0 0 0 0 0 0 0 0 0 0 0 0 0
0 0 0 0 0 0 0 0 0 0 0 0 0 0 0 0 0 0 0 0 0 0 0 0 0 0 0 0 0 0 0 0 0 0 0 0 0 0
0 0 0 0 0 0 0 0 0 0 0 0 0 0 0 0 0 0 0 0 0 0 0 0 0 0 0 0 0 0 0 0 0 0 0 0 0 0
0 0 0 0 0 0 0 0 0 0 0 0 0 0 0 0 0 0 0 0 0 0 0 0 0 0 0 0 0 0 0 0 0 0 0 0 0 0
0 0 0 0 0 0 0 0 0 0 0 0 0 0 0 0 0 0 0 0 0 0 0 0 0 0 0 0 0 0 0 0 0 0 0 0 0 0
0 0 0 0 0 0 0 0 0 0 0 0 0 0 0 0 0 0 0 0 0 0 0 0 0 0 0 0 0 0 0 0 0 0 0 0 0 0
0 0 0 0 0 0 0 0 0 0 0 0 0 0 0 0 0 0 0 0 0 0 0 0 0 0 0 0 0 0 0 0 0 0 0 0 0 0
0 0 0 0 0 0 0 0 0 0 0 0 0 0 0 0 0 0 0 0 0 0 0 0 0 0 0 0 0 0 0 0 0 0 0 0 0 0
0 0 0 0 0 0 0 0 0 0 0 0 0 0 0 0 0 0 0 0 0 0 0 0 0 0 0 0 0 0 0 0 0 0 0 0 0 0
Wind_Speed
3 2 2 2 2 2 2 3 3 3 4 3 2 2 1 1 3 3 3 5 7 7 7 7 6 7 7 7 6 5 5 6 6 6 7 6 7 7
2 3 2 2 2 2 2 3 3 3 5 3 2 2 2 3 5 4 4 7 7 7 8 8 7 7 7 7 6 6 6 6 7 7 7 7 7 6
3 3 3 3 2 2 2 3 3 3 5 4 2 2 3 3 3 3 3 4 4 8 8 8 8 8 8 7 7 7 7 7 7 8 8 8 8 7
4 4 4 3 3 3 3 4 4 4 4 6 3 3 4 3 3 4 4 4 4 7 9 9 9 8 8 8 8 8 7 7 7 8 8 9 9 8
4 4 4 4 4 4 4 4 4 4 4 5 4 3 3 3 3 4 4 3 4 6 8 9 10 9 9 9 9 8 8 8 8 8 8 8 8 8
4 4 4 5 5 5 5 5 4 4 4 4 4 3 3 3 3 3 3 3 4 4 6 7 9 10 9 9 9 9 9 9 9 9 9 8 8 8
3 4 5 6 8 6 5 5 4 4 4 4 5 4 4 4 4 3 4 3 4 3 3 4 4 4 6 8 9 9 9 10 10 9 9 9 8 9
4 4 5 6 8 9 10 9 8 6 6 6 6 6 6 5 4 4 3 3 4 3 3 4 3 5 4 4 9 11 10 10 10 10 10 9 9 9
4 4 4 5 7 5 8 10 10 12 11 8 7 7 6 6 5 5 5 5 5 3 3 5 4 5 4 6 11 11 11 10 10 10 10 10 10 10
5 5 5 5 6 6 6 6 6 7 8 7 7 7 6 5 6 6 6 4 3 3 3 4 4 4 4 4 11 13 11 11 11 11 11 11 11 11
5 5 5 5 9 11 7 6 7 7 9 11 12 10 11 11 9 4 4 4 5 4 3 4 3 3 4 5 7 12 11 11 11 11 11 11 11 10
4 5 8 8 10 11 7 6 7 6 5 6 7 8 7 8 11 7 6 5 4 4 3 3 3 2 4 3 4 4 5 9 11 11 11 11 11 6
3 3 5 9 10 10 9 6 9 7 5 5 5 5 4 5 5 5 5 5 5 5 3 3 3 3 3 3 2 3 4 4 4 6 8 10 10 7
3 3 5 9 10 11 8 9 11 8 3 4 4 4 4 4 5 5 6 6 5 6 5 5 4 4 4 4 4 3 3 3 4 4 4 7 8 10
3 7 9 10 9 7 8 10 8 4 3 4 5 5 4 4 3 3 3 4 4 5 5 5 5 4 4 4 4 3 3 3 4 4 4 4 4 4
4 6 9 9 7 6 6 5 3 3 4 4 4 4 3 3 3 3 3 3 3 3 3 5 5 5 4 4 4 4 4 4 4 4 4 4 3 4
4 3 3 3 3 2 2 2 2 3 3 3 3 3 4 4 4 3 3 3 4 4 3 2 2 2 3 4 4 5 4 4 4 4 4 4 4 5
4 2 3 3 3 3 3 3 3 3 3 3 3 3 4 4 4 3 3 4 4 4 4 3 2 1 1 4 6 5 4 4 3 3 3 4 5 4
2 2 3 3 3 3 3 3 3 3 3 3 3 3 3 4 3 3 4 4 4 4 3 3 3 3 5 5 4 6 4 3 3 3 4 4 5 4
2 3 3 3 3 3 3 3 3 3 3 3 3 3 3 4 4 4 4 4 4 3 3 3 4 5 6 5 3 3 6 5 4 4 4 3 4 6
3 3 3 3 3 3 3 3 3 3 4 3 3 3 3 4 4 4 4 6 4 4 5 5 5 5 2 1 2 3 3 6 6 5 4 3 4 4
3 3 3 3 3 3 3 3 3 3 4 3 3 3 3 3 4 4 3 4 4 4 4 3 2 2 3 4 5 4 4 3 5 9 9 8 5 5
3 3 3 3 3 3 3 3 4 4 4 4 3 3 3 3 3 3 3 3 3 3 3 3 2 3 4 4 4 4 4 4 3 3 5 8 12 13
Wind_Direction
222 230 239 244 229 231 222 208 207 247 261 244 239 258 284 282 275 278 256 253 255 255 256 259 263 258 262 255 247 248 252 255 254 256 252 256 251 244
224 220 236 248 242 230 224 234 235 238 259 252 250 253 256 268 273 282 269 261 255 256 254 251 253 251 253 257 249 246 250 255 254 252 251 249 253 251
233 227 235 237 244 243 233 236 242 240 260 274 268 245 239 250 267 272 272 265 255 254 258 254 250 247 247 251 252 251 247 249 251 249 250 251 251 251
230 227 235 236 239 244 237 241 244 239 244 264 261 240 240 238 249 260 269 267 262 258 255 255 254 249 244 246 249 248 248 246 249 251 250 249 249 253
226 227 232 231 238 240 240 246 248 246 238 245 252 246 244 236 244 257 265 267 263 261 254 254 254 253 247 245 244 244 246 245 242 248 251 248 245 248
233 232 233 232 232 232 235 239 242 239 234 242 244 245 244 234 226 240 261 258 263 265 256 259 256 253 250 248 244 240 240 242 241 241 245 253 246 243
243 244 242 247 248 245 242 234 232 235 231 237 240 240 238 227 229 230 248 261 262 246 251 256 253 245 240 243 243 242 242 241 242 243 243 247 252 242
246 249 251 252 253 254 255 252 243 235 230 234 241 233 236 233 234 232 244 253 266 233 233 255 241 244 241 234 245 245 244 244 243 245 244 243 249 243
239 243 252 255 259 254 254 258 257 255 246 238 241 238 236 230 226 235 237 242 255 243 243 259 243 248 240 243 247 246 244 244 243 244 245 246 250 243
239 237 241 247 253 256 251 251 253 254 252 250 244 242 237 230 226 232 237 250 266 244 220 251 250 250 247 238 243 242 242 244 245 246 248 251 252 245
249 248 249 246 254 260 258 252 256 261 262 261 258 256 249 245 243 233 226 237 259 248 217 231 246 262 257 243 238 236 240 243 245 247 249 254 254 244
252 253 255 259 259 261 256 248 250 255 259 265 262 255 247 242 245 231 216 225 250 254 220 218 237 244 270 250 225 225 230 240 244 248 253 255 251 236
261 262 263 268 269 266 265 254 258 262 253 252 255 250 241 232 232 229 222 222 232 247 220 209 230 225 241 263 249 228 220 226 237 244 252 249 244 237
262 269 272 274 276 274 271 269 271 269 252 247 248 249 242 238 236 229 227 229 232 239 228 213 228 222 231 251 254 236 225 227 231 238 237 242 245 250
272 282 287 283 282 277 277 279 273 259 249 248 248 251 249 241 238 233 231 234 240 237 227 226 228 226 225 240 243 231 239 237 226 223 228 225 230 228
283 279 283 284 287 291 289 287 281 262 256 252 256 258 255 243 235 229 234 231 242 256 240 229 221 213 228 237 235 239 228 223 217 222 233 234 235 232
300 288 279 279 280 292 294 293 293 295 279 272 270 271 263 254 248 233 227 229 235 240 244 237 216 212 224 225 237 238 233 238 230 221 224 241 240 234
296 288 289 287 282 283 284 286 288 288 287 282 269 265 268 260 254 245 234 228 235 237 231 217 201 234 276 269 238 235 233 233 231 225 222 237 256 245
289 281 277 278 281 285 287 286 287 289 286 279 272 266 268 265 256 247 239 238 240 236 229 209 201 207 230 252 259 223 219 221 223 237 232 236 253 257
282 273 274 277 279 283 286 289 291 293 290 285 280 272 265 264 255 247 241 237 238 236 232 220 214 215 225 234 247 249 228 221 219 234 248 259 262 267
289 286 281 282 283 283 286 286 285 285 288 284 277 275 272 265 258 251 245 248 244 231 229 233 236 239 230 193 245 256 245 240 238 232 229 240 253 254
282 283 288 286 280 278 279 280 280 281 284 282 279 277 274 268 261 260 250 243 240 240 241 245 220 213 207 217 236 247 259 258 256 260 256 245 228 229
288 285 282 284 281 278 276 276 276 277 279 278 277 276 277 275 267 259 253 248 249 252 250 241 228 219 227 223 231 239 247 252 251 256 261 261 259 258